Collingwood, Ontario

2:27 PM EST on November 21, 2019 (GMT -0500)
Collingwood

Weather History for CWCO - October, 2019

Change the Weather History Date:

Monday, October 21, 2019

  Actual Average (CYBN) Record (CYBN)
Temperature  
Mean Temperature 50 °F -  
Max Temperature 62 °F 51 °F 80 °F (2007)
Min Temperature 38 °F 35 °F 28 °F (2005)
Degree Days  
Heating Degree Days 15    
Moisture  
Dew Point 44 °F    
Average Humidity 70    
Maximum Humidity 100    
Minimum Humidity 41    
Precipitation  
Precipitation 0.00 in - - ()
Sea Level Pressure  
Sea Level Pressure 29.96 in    
Wind  
Wind Speed 3 mph ()    
Max Wind Speed 8 mph    
Max Gust Speed 21 mph    
Averages and records for this station are not official NWS values.
T = Trace of Precipitation, MM = Missing Value Source: Averaged Metar Reports

Daily Weather History Graph

Daily Weather History Graph

Search for Another Location

Airport or City:

Astronomy

Oct. 21, 2019 Rise Set
Actual Time 7:43 AM EDT 6:26 PM EDT
Civil Twilight 7:13 AM EDT 6:56 PM EDT
Nautical Twilight 6:39 AM EDT 7:30 PM EDT
Astronomical Twilight 6:06 AM EDT 8:03 PM EDT
Moon No Moon Rise 3:08 PM EDT
Length of Visible Light 11h 42m
Length of Day
10h 43m
Waning Gibbous, 48% of the Moon is Illuminated
Oct 21
Waning Gibbous
Oct 27
New
Nov 4
First Quarter
Nov 12
Full
Nov 19
Last Quarter

Hourly Weather History & Observations

Time (EDT) Temp. Dew Point Humidity Pressure Visibility Wind Dir Wind Speed Gust Speed Precip Events Conditions
12:00 AM 44.2 °F 43.3 °F 97% 30.02 in - SSW 2.3 mph - N/A   Unknown
2:00 AM 43 °F 42 °F 96% 30.02 in - SSW 2.3 mph - -  
2:00 AM 42.6 °F 42.3 °F 99% 30.02 in - SSW 2.3 mph - N/A   Unknown
5:00 AM 41 °F 40 °F 96% 30.04 in - South 2.3 mph - -  
5:00 AM 40.6 °F 40.3 °F 99% 30.04 in - South 2.3 mph - N/A   Unknown
7:00 AM 38.8 °F 38.7 °F 99% 30.07 in - South 2.3 mph - N/A   Unknown
8:00 AM 40 °F 40 °F 100% 30.07 in - SE 2.3 mph - -  
11:00 AM 54 °F 47 °F 70% 30.04 in - SSE 3.5 mph - -  
12:00 PM 57.9 °F 46.6 °F 66% 30.02 in - SSE 5.8 mph - N/A   Unknown
1:00 PM 58.1 °F 45.5 °F 63% 30.00 in - SSE 5.8 mph - N/A   Unknown
2:00 PM 62 °F 48 °F 49% 29.97 in - SSE 4.6 mph - -  
2:00 PM 62.1 °F 47.7 °F 59% 29.97 in - SSE 4.6 mph - N/A   Unknown
3:00 PM 62.6 °F 43.5 °F 50% 29.95 in - SE 8.1 mph 20.7 mph N/A   Unknown
4:00 PM 62.1 °F 42.4 °F 49% 29.92 in - SSE 6.9 mph - N/A   Unknown
5:00 PM 61 °F 43 °F 41% 29.92 in - SE 4.6 mph - -  
5:00 PM 60.6 °F 43.2 °F 53% 29.92 in - SE 4.6 mph - N/A   Unknown
6:00 PM 59.2 °F 42.3 °F 53% 29.88 in - SE 5.8 mph - N/A   Unknown
7:00 PM 58.3 °F 41.9 °F 54% 29.86 in - SSE 5.8 mph - N/A   Unknown
8:00 PM 58 °F 42 °F 44% 29.83 in - SSE 8.1 mph - -  
11:00 PM 58 °F 48 °F 60% 29.76 in - South 5.8 mph - -  
11:00 PM 58.1 °F 47.8 °F 69% 29.76 in - South 5.8 mph - N/A   Unknown